Zurück zum Katalog

STARLINK-5980

AktivKommunikationSSO
NORAD 56326·PAYLOAD·🇺🇸 United States

Gestartet Apr 27, 2023 von Vandenberg Space Force Base

Loading…

Nächste Überflüge (nächste 24 Stunden)

TLE

AktuellSource: CelesTrak SupGP

Epoche: Sep 14, 2026, 13:59 UTC

1 56326C 23058K   26257.58312500  .00532350  00000+0  30421-1 0  2571
2 56326  97.2854 251.6967 0001690  92.8035  14.1836 15.12518093    17

Verfolge STARLINK-5980 in Echtzeit mit AllMySat

Download on the App Store